This is the latest recevied weather packets stored in our database for station/object ac2ev. If no packets are shown the sender has not sent any weather packets the latest 10 day(s).
| Time | Temp. | Humidity | Pressure | Rain* | Wind** | Luminosity | Snow |
|---|---|---|---|---|---|---|---|
| 1778003162 | 20.56° C | 56% | 1003.3 hPa | 0 mm | - | - | - |
| 1778002863 | 21.11° C | 56% | 1003.2 hPa | 0 mm | - | - | - |
| 1778002562 | 21.67° C | 54% | 1003.3 hPa | 0 mm | - | - | - |
| 1778002263 | 21.67° C | 55% | 1003.3 hPa | 0 mm | - | - | - |
| 1778001963 | 21.67° C | 55% | 1003.2 hPa | 0 mm | - | - | - |
| 1778001662 | 21.67° C | 55% | 1003.3 hPa | 0 mm | - | - | - |
| 1778001363 | 21.67° C | 54% | 1003.1 hPa | 0 mm | - | - | - |
| 1778001063 | 21.67° C | 56% | 1003 hPa | 0 mm | - | - | - |
| 1778000763 | 21.11° C | 56% | 1003 hPa | 0 mm | - | - | - |
| 1778000463 | 21.11° C | 57% | 1003 hPa | 0 mm | - | - | - |
| 1778000163 | 20.56° C | 59% | 1002.9 hPa | 0 mm | - | - | - |
| 1777999862 | 20.56° C | 59% | 1003 hPa | 0 mm | - | - | - |
| 1777999563 | 20.56° C | 59% | 1002.9 hPa | 0 mm | - | - | - |
| 1777999263 | 20° C | 60% | 1003.1 hPa | 0 mm | - | - | - |
| 1777998963 | 20° C | 61% | 1003.2 hPa | 0 mm | - | - | - |
| 1777998662 | 19.44° C | 61% | 1003.3 hPa | 0 mm | - | - | - |
| 1777998363 | 19.44° C | 62% | 1003.3 hPa | 0 mm | - | - | - |
| 1777998062 | 19.44° C | 61% | 1003.3 hPa | 0 mm | - | - | - |
| 1777997763 | 19.44° C | 61% | 1003.3 hPa | 0 mm | - | - | - |
| 1777997463 | 19.44° C | 61% | 1003.4 hPa | 0 mm | - | - | - |
| 1777997163 | 19.44° C | 61% | 1003.2 hPa | 0 mm | - | - | - |
| 1777996864 | 19.44° C | 61% | 1003.1 hPa | 0 mm | - | - | - |
| 1777996562 | 20° C | 60% | 1003.1 hPa | 0 mm | - | - | - |
| 1777996264 | 20° C | 60% | 1002.9 hPa | 0 mm | - | - | - |
| 1777995963 | 20° C | 61% | 1002.9 hPa | 0 mm | - | - | - |
* Rain latest hour (hover to see other rain measurements)
** Current wind speed in m/s (hover to see current wind gust speed)